Theta_e
320 319 320 320 320 320 319 318 323 324 323 325 323 322 321 320 321 322 324 323 324 327 325 325 330 330 330 330 331 331 331 333 332 335 341 335 331 330 322 318 317 315 315 315 317 318 319 317 314 312 312 311 313 317 322 329 331 331 333 333 334 333 332 331 325 322 322 321 318 314 313 314 315 315 317 319 320 319 318 316 316 320 322 322 321 322 321 319 317 312 312 317 316 312 311 310 310
320 320 320 319 320 320 320 319 325 332 329 324 322 321 319 319 322 326 327 325 328 328 325 327 330 331 330 330 330 331 333 332 330 332 333 331 331 325 319 318 316 315 315 315 316 316 315 313 311 312 312 313 317 320 323 328 331 332 333 333 333 333 333 330 323 320 321 322 320 319 319 320 318 319 320 321 322 321 321 319 318 321 323 322 320 322 321 317 315 313 315 316 314 313 312 311 309
320 320 320 319 320 318 321 320 322 331 328 323 325 322 318 321 326 328 325 325 329 329 328 329 330 331 330 331 330 331 335 333 331 334 333 332 329 322 320 318 316 316 316 316 316 315 313 311 311 314 316 319 323 326 326 328 331 332 333 333 332 332 332 328 323 321 318 318 320 321 323 322 317 319 320 320 321 321 320 319 320 320 322 322 320 322 321 319 318 319 322 318 317 319 316 313 310
320 319 319 319 319 319 328 328 327 330 324 323 324 320 321 327 328 322 323 328 329 328 329 330 330 330 330 333 331 331 334 333 333 335 333 331 327 322 320 318 318 317 317 316 315 315 314 312 313 316 320 322 326 329 329 329 332 333 333 333 332 331 329 326 323 319 314 315 319 321 322 319 314 317 317 317 319 318 319 319 319 318 320 321 320 323 323 322 323 324 324 320 321 325 322 316 312
319 320 318 319 319 320 328 326 327 328 323 324 321 319 323 327 326 318 324 331 326 326 328 330 332 331 332 333 331 331 334 334 334 335 333 330 326 322 320 319 319 318 317 316 315 315 314 314 315 318 320 324 329 331 331 331 333 333 333 333 331 329 326 324 322 316 315 317 319 321 319 315 312 314 315 316 316 316 318 317 317 317 318 320 320 322 325 325 324 323 322 320 319 321 320 315 311
319 320 318 318 318 317 322 320 323 327 326 326 320 322 323 319 321 321 326 331 325 324 327 329 331 331 332 333 332 331 333 334 335 334 333 330 325 322 321 320 319 318 316 315 314 313 312 314 315 318 320 324 329 331 331 332 333 333 333 332 331 328 324 321 319 318 320 321 321 320 317 314 314 315 316 318 316 316 317 316 318 318 317 318 320 322 326 326 324 322 319 316 313 312 313 312 312
319 320 318 318 318 317 325 326 328 330 322 319 319 323 320 314 319 325 326 328 325 323 327 329 328 331 333 333 333 332 333 334 334 334 333 330 325 323 322 320 320 318 316 315 313 312 311 312 314 317 320 324 329 331 331 332 333 332 332 331 330 327 320 315 316 320 322 322 323 321 320 318 317 316 315 316 315 316 316 316 317 317 317 317 317 321 325 325 324 323 319 315 313 311 312 312 312
319 320 318 321 323 322 329 328 328 328 317 311 313 316 316 316 321 326 324 323 323 323 327 329 328 332 334 331 333 333 333 333 333 334 333 328 325 324 322 321 320 318 316 314 313 311 311 312 314 318 321 324 328 331 332 332 333 332 331 329 327 322 316 314 317 321 320 321 322 319 319 317 315 312 311 312 312 313 312 312 312 312 315 315 315 317 321 322 323 324 319 314 313 311 312 312 312
318 320 317 321 325 324 329 326 320 321 319 315 312 313 315 319 323 324 320 319 321 324 328 329 326 327 331 331 333 334 334 333 333 334 332 328 327 325 322 321 320 319 317 314 312 311 310 312 315 319 322 324 327 331 331 329 330 331 329 327 324 318 314 316 319 320 318 321 322 316 314 314 311 309 309 310 309 310 309 309 309 310 311 311 313 314 316 318 321 322 316 312 312 312 312 312 312
318 319 317 321 326 321 323 326 321 319 319 316 312 314 317 320 322 321 319 319 320 325 329 327 323 324 330 332 333 334 335 334 334 335 332 328 328 325 322 321 320 319 317 314 312 310 310 311 314 317 318 321 325 328 327 325 327 328 326 323 319 314 313 314 317 317 315 318 321 317 314 312 309 309 308 308 308 309 309 309 310 311 312 312 312 312 313 314 316 317 314 312 312 312 312 312 312
319 317 316 323 328 321 321 327 328 326 321 315 313 316 319 321 320 318 318 319 321 326 328 325 324 327 330 331 333 334 334 335 335 335 331 329 329 325 322 321 320 319 317 315 312 311 310 310 311 312 313 316 321 324 322 321 323 322 319 316 315 312 310 310 312 314 313 314 318 321 319 313 310 310 308 308 308 308 309 310 312 312 313 314 313 312 312 312 313 313 312 312 312 312 312 312 312
320 318 326 330 326 323 323 326 328 331 326 321 320 318 319 321 319 318 318 320 323 325 325 325 325 327 329 330 333 334 334 335 335 335 332 330 329 326 323 323 322 320 318 316 314 312 310 310 310 310 311 312 316 319 318 318 318 316 313 312 312 311 309 309 309 310 310 311 316 321 319 314 312 310 308 308 308 309 310 311 313 313 313 313 313 313 312 312 312 312 312 312 313 313 313 313 313
320 321 330 326 320 322 322 324 325 327 329 324 320 318 320 320 318 319 318 321 323 324 324 324 324 325 330 330 332 334 334 335 335 335 333 330 330 327 325 326 325 322 320 318 316 313 311 310 310 309 310 310 312 314 315 316 315 314 312 311 311 309 308 309 309 309 309 310 313 316 314 312 311 309 308 308 309 310 311 313 313 313 314 314 314 314 313 313 313 313 313 313 314 314 314 315 315
319 319 325 321 317 322 320 321 321 322 326 322 316 318 321 319 319 319 318 322 323 322 322 324 325 323 327 328 331 334 334 335 335 335 334 331 331 329 329 330 328 325 322 319 317 314 311 310 310 309 309 310 310 311 313 314 314 313 312 311 310 309 309 309 309 309 309 309 309 310 310 310 310 309 308 308 309 311 312 314 315 315 315 315 315 315 314 314 314 314 315 315 315 316 316 316 316
318 316 324 326 321 322 319 318 320 322 325 320 316 318 319 319 318 317 318 322 323 321 321 324 326 322 321 324 329 333 334 335 335 336 335 332 331 331 331 331 330 328 323 320 319 316 313 310 310 310 309 310 310 311 311 312 312 311 311 310 310 309 309 309 309 309 309 309 308 308 308 308 309 308 308 309 310 312 313 315 315 316 316 316 316 315 315 315 316 316 316 316 316 317 317 317 317
318 316 324 329 321 320 318 317 319 323 323 315 313 317 319 318 317 317 317 319 320 320 322 324 325 322 321 320 324 331 333 334 335 336 336 333 332 332 332 331 331 330 326 322 320 319 316 312 310 310 310 310 310 310 310 310 310 310 310 309 309 309 309 309 309 309 309 308 308 308 308 308 308 308 308 309 310 312 314 315 316 316 316 316 316 316 316 316 317 317 317 317 317 317 318 318 318
317 321 329 327 321 321 320 319 319 321 322 314 311 316 319 318 315 317 317 317 319 319 321 325 325 322 323 320 321 331 333 333 335 336 336 334 332 332 332 332 331 330 328 325 322 321 319 315 312 310 310 310 309 310 309 309 309 309 309 309 309 309 309 309 308 309 308 308 308 308 308 308 308 308 308 309 311 313 314 315 315 316 316 317 316 317 317 317 317 317 317 317 318 318 318 319 319
320 328 330 324 324 325 322 321 317 316 319 314 311 315 319 318 315 316 317 317 317 319 321 324 325 323 323 321 320 330 333 333 335 335 336 334 333 332 332 331 330 330 329 328 325 323 321 319 317 314 312 311 310 309 309 309 309 309 309 309 309 309 309 309 309 308 308 308 308 308 308 308 308 308 309 310 312 313 314 315 316 316 317 317 317 317 317 317 318 318 318 318 318 319 319 320 320
320 325 325 327 329 322 317 317 313 313 315 313 312 314 317 318 315 317 319 318 319 322 322 323 326 324 323 323 321 330 333 333 334 335 335 335 333 332 332 331 330 329 329 329 327 324 323 322 321 319 316 314 312 311 310 310 309 309 309 309 309 309 309 308 309 309 308 308 308 308 307 307 307 308 309 310 312 313 314 315 316 316 316 317 317 317 317 317 318 318 319 319 319 320 320 321 321
315 319 324 327 322 316 314 314 313 314 313 312 313 313 314 316 315 318 318 319 323 324 322 321 325 324 323 324 323 329 333 332 334 334 334 335 334 333 332 331 330 329 329 329 328 326 324 323 322 322 321 319 316 314 312 312 311 310 310 310 310 310 309 309 309 309 309 309 308 308 308 307 307 308 309 311 312 314 315 315 316 316 317 317 317 317 318 318 318 319 319 320 320 320 321 322 322
312 318 324 320 314 314 315 313 313 314 313 312 313 313 314 314 315 317 317 319 324 321 318 319 320 319 321 324 323 328 332 331 333 334 334 334 334 333 332 331 330 329 329 329 329 327 326 324 323 323 323 323 320 317 314 313 313 311 311 310 310 310 310 310 310 310 309 309 308 307 307 307 307 308 310 311 313 314 315 316 316 316 317 317 317 317 318 318 319 319 320 320 321 321 322 323 323
312 316 317 313 311 312 313 312 313 312 312 313 312 313 314 314 314 317 317 318 321 319 317 317 317 317 318 321 323 326 330 330 332 333 334 334 334 333 332 331 330 328 329 329 329 329 327 325 323 323 324 324 324 321 317 315 315 314 313 311 310 310 310 310 310 310 310 310 309 308 307 307 308 309 310 312 314 315 315 316 316 316 317 317 317 318 318 319 319 320 320 321 322 323 323 324 323
313 314 311 311 311 310 312 311 312 312 312 312 312 314 314 313 314 315 317 318 317 317 317 317 317 318 318 321 323 325 327 328 329 331 333 333 333 332 332 331 330 329 329 329 329 329 328 326 324 324 324 325 325 323 320 317 316 317 316 314 312 311 311 311 312 312 311 311 311 310 309 308 308 310 311 313 314 315 315 316 316 316 317 317 318 318 319 319 320 321 322 322 323 324 324 324 322
315 315 311 311 311 310 312 311 311 312 311 313 312 313 313 313 314 314 315 317 317 317 316 316 316 318 319 321 323 323 323 324 325 327 330 332 331 331 331 331 330 330 329 329 329 330 330 329 326 324 324 325 325 324 323 319 316 317 317 317 315 313 313 313 313 313 313 312 312 312 312 310 311 312 312 314 315 315 316 316 317 317 317 318 318 319 320 321 322 322 323 323 324 324 324 323 322
315 315 312 311 313 312 313 312 312 312 311 312 311 312 313 313 313 312 314 316 317 317 316 316 315 317 318 319 322 323 323 322 325 327 329 331 331 330 330 330 330 329 329 328 329 329 330 330 328 326 325 325 325 325 324 321 318 317 318 318 318 316 315 314 314 315 315 315 314 314 313 313 313 314 314 315 315 316 317 317 318 318 319 319 320 321 321 322 323 323 324 324 324 325 324 323 322
312 313 311 310 313 313 313 312 312 312 312 312 312 312 312 311 312 312 314 315 316 317 317 316 315 316 317 318 320 322 323 322 323 325 327 329 330 330 329 329 329 329 329 329 330 330 330 331 330 328 327 327 326 325 324 323 320 319 319 319 319 320 318 316 315 316 317 318 317 317 315 315 316 316 316 317 317 318 319 320 320 321 321 321 322 323 323 323 323 324 324 324 325 325 324 323 322
313 312 312 312 313 312 312 312 311 312 312 312 313 313 311 310 311 314 315 314 316 316 317 317 316 315 316 317 319 321 322 322 321 322 325 328 329 329 328 328 328 328 329 329 330 330 330 331 331 330 329 328 327 325 324 323 322 321 321 320 320 320 320 319 317 317 318 319 319 320 319 318 319 318 319 320 320 320 321 322 322 322 323 323 323 323 324 323 324 324 324 324 324 325 324 322 320
316 315 317 316 313 313 314 312 312 312 312 312 312 311 310 310 312 314 315 314 315 315 316 317 316 316 316 317 319 321 322 322 320 320 322 325 327 328 327 326 327 328 329 329 330 330 330 330 331 330 329 328 327 325 324 323 322 323 323 321 321 321 321 320 319 318 318 320 320 321 321 321 321 321 321 321 321 322 322 322 323 323 323 323 323 323 324 323 324 324 323 324 324 324 324 322 319
318 315 317 318 314 315 314 311 312 312 312 312 311 313 313 312 312 313 314 314 314 314 316 316 316 315 316 318 320 321 322 323 321 318 318 321 324 326 326 326 326 327 328 329 330 329 329 330 331 330 329 328 327 325 325 324 323 323 323 322 322 321 321 321 320 320 319 320 321 321 322 322 322 322 322 322 322 323 323 323 323 323 323 323 323 323 323 324 323 323 323 323 323 322 320 319 319
320 314 313 317 317 318 313 308 310 311 312 312 311 316 320 316 312 312 313 314 314 314 315 316 316 315 315 318 319 321 322 322 321 318 316 318 322 324 325 325 325 326 327 327 328 328 327 329 330 330 329 328 327 326 325 325 324 323 322 322 322 321 321 321 321 321 320 321 321 321 322 322 322 323 323 323 323 323 323 323 323 323 323 323 323 323 323 323 322 321 321 320 319 319 318 318 319
322 319 316 316 318 320 314 309 309 311 311 310 312 316 319 318 313 312 312 313 314 314 314 315 315 315 315 317 318 320 320 320 319 318 317 317 319 322 323 325 325 325 326 326 327 327 327 328 330 330 329 328 327 327 326 325 325 324 323 322 322 322 322 321 321 321 321 321 321 322 322 323 323 323 323 323 323 323 323 323 323 323 322 322 322 322 321 321 321 320 320 319 318 317 318 319 319
323 324 324 318 315 318 314 309 309 312 312 308 312 316 316 316 312 311 311 312 313 313 314 314 314 315 315 316 317 318 319 319 319 319 318 317 318 319 321 323 323 324 325 325 326 326 327 328 329 329 328 328 328 327 327 327 327 325 324 323 322 323 322 321 322 322 322 322 322 322 323 323 324 324 324 324 324 324 323 323 324 323 322 320 320 320 320 320 320 319 319 319 317 317 319 319 318
323 324 326 319 314 314 313 311 308 309 311 309 311 315 317 314 309 309 311 311 313 314 314 313 314 315 315 316 316 317 318 319 319 318 318 317 317 318 319 320 321 322 323 324 325 325 326 327 327 327 327 328 327 327 328 328 328 327 326 324 323 323 322 322 322 323 324 324 324 324 324 324 324 324 324 324 324 324 324 323 323 322 321 320 320 320 321 321 319 319 319 319 318 318 318 318 317
324 320 321 317 313 313 313 313 309 307 310 312 312 312 315 314 309 309 310 310 312 315 315 315 315 315 315 316 315 316 317 318 317 316 317 317 317 317 318 319 320 321 322 323 324 324 325 326 326 326 326 326 327 327 327 328 328 328 327 325 324 323 322 323 323 324 325 326 326 325 325 325 324 324 324 324 324 324 324 324 323 322 322 321 320 321 322 322 320 319 320 319 319 319 319 319 318
325 320 319 318 314 312 311 312 310 309 311 312 313 312 313 313 311 310 310 309 311 314 315 315 315 316 316 316 316 317 317 317 316 315 316 316 317 317 317 318 319 320 321 322 323 324 325 326 326 327 326 326 326 326 326 327 328 328 328 326 325 324 324 323 323 325 326 327 326 326 325 325 324 324 323 323 323 323 323 323 323 322 321 321 321 322 324 323 321 320 321 320 320 320 320 321 319
324 319 318 317 315 312 310 310 310 308 311 313 313 313 312 313 313 310 310 310 310 311 313 314 315 317 318 318 317 316 317 316 315 315 316 317 317 317 317 318 318 319 320 321 322 323 324 325 326 327 327 326 326 326 326 326 327 327 327 327 326 325 325 325 325 325 326 326 326 326 326 325 324 324 323 323 323 323 323 322 323 323 322 322 323 323 324 323 320 320 320 318 319 321 322 321 319
317 316 316 314 313 312 310 311 310 307 310 313 312 312 312 312 313 311 309 309 309 309 311 312 314 315 316 317 316 316 316 316 315 316 316 316 317 317 318 318 318 318 319 320 321 321 322 323 324 325 326 326 326 325 325 325 325 326 326 326 325 326 327 326 326 325 325 325 325 325 325 325 325 324 323 324 323 324 324 323 324 323 323 324 324 323 322 321 320 320 322 321 320 322 324 321 318
314 317 316 314 313 312 311 310 310 308 309 314 313 311 312 311 311 310 308 308 309 310 310 311 312 313 314 315 315 315 315 315 315 316 316 316 316 316 317 317 318 318 317 318 319 319 321 321 322 323 324 325 325 324 324 324 324 324 325 325 325 326 326 326 326 325 324 323 323 323 325 325 325 325 324 324 324 324 324 324 324 323 323 324 323 321 319 320 322 322 323 324 321 320 324 322 317
317 318 317 317 314 313 313 311 311 309 309 314 314 311 312 312 311 310 307 308 310 311 311 312 312 313 313 313 314 314 314 314 314 315 316 316 316 316 317 317 316 316 316 316 317 318 319 320 320 321 323 324 324 324 323 323 323 324 325 325 325 326 326 326 326 325 325 324 323 323 324 325 325 325 325 325 325 325 324 324 324 323 324 324 322 320 320 320 324 324 325 327 324 319 321 320 316
318 319 318 317 313 313 315 312 311 312 310 312 312 311 312 312 312 311 308 309 310 311 312 312 312 312 313 313 313 313 313 314 314 314 315 315 315 316 316 316 316 315 315 315 316 317 317 318 319 320 321 322 323 323 323 323 324 325 326 326 327 327 327 326 327 327 326 325 325 324 325 326 325 325 325 326 325 324 323 322 322 323 323 322 321 321 322 321 321 323 324 326 322 316 316 316 315
316 316 318 318 314 312 312 312 311 312 312 310 310 313 314 313 315 314 311 309 308 309 310 310 311 312 313 312 313 314 313 314 314 314 314 314 314 315 315 315 315 314 314 313 314 315 315 316 317 318 319 320 321 322 323 324 326 327 328 329 329 329 328 327 328 328 328 328 326 324 325 325 325 325 324 324 323 323 322 321 321 323 323 323 322 321 323 324 322 322 323 321 318 315 314 314 313
316 315 316 315 313 311 310 312 312 312 315 312 311 316 318 320 320 316 314 311 309 308 307 308 311 312 312 312 313 314 314 314 314 314 314 314 314 314 314 314 315 314 313 313 313 313 314 315 315 316 317 318 319 321 323 324 326 327 329 330 330 329 328 326 326 327 327 327 324 322 322 322 324 325 323 323 325 324 322 321 322 324 324 325 325 323 324 327 325 322 321 318 316 315 315 313 311
318 317 313 311 311 311 311 312 311 314 318 313 310 314 318 320 319 318 316 314 313 310 306 306 310 311 311 313 315 314 314 314 314 314 314 314 314 314 314 314 314 314 313 312 312 313 313 314 314 315 316 317 318 319 321 324 325 326 328 329 330 329 326 324 323 324 325 324 323 322 320 319 321 322 321 325 328 324 320 321 324 325 325 326 327 324 322 323 321 317 316 314 313 313 312 310 308
320 315 311 311 311 312 313 313 312 315 316 312 311 312 314 314 315 316 314 313 315 313 310 308 308 311 312 313 315 315 315 315 314 315 314 314 314 313 314 313 313 313 313 312 312 312 312 313 313 314 314 315 316 317 319 322 324 325 327 329 329 329 327 325 324 325 325 324 325 324 322 322 321 319 318 323 328 324 320 321 324 326 327 326 326 323 319 317 316 315 313 312 311 309 308 306 304
317 312 310 311 312 313 316 315 314 314 313 313 313 312 313 315 318 316 311 313 316 315 315 312 308 311 313 314 316 316 316 316 314 314 314 314 314 314 314 313 313 313 313 312 312 312 312 313 313 313 313 314 315 316 318 320 322 324 326 328 329 328 327 327 327 328 328 328 327 326 324 324 322 319 318 321 324 323 320 320 322 323 324 323 323 321 317 315 315 314 312 310 308 306 304 303 302
311 310 311 313 315 315 316 317 315 312 311 314 315 312 313 316 321 319 312 313 315 315 317 313 309 313 314 314 316 316 316 316 315 315 314 314 314 314 314 314 313 313 312 313 312 312 313 313 313 313 313 314 314 315 317 319 321 323 325 327 328 328 328 328 328 329 329 328 328 327 326 324 322 321 319 318 319 319 318 321 322 321 319 318 317 317 316 315 314 312 309 306 305 303 302 301 300
308 312 315 316 319 319 320 321 315 312 315 314 313 313 313 314 319 318 314 316 316 315 316 313 309 312 314 315 316 316 316 316 316 316 315 315 314 314 314 314 314 313 313 313 313 313 313 313 313 313 313 313 314 315 316 318 320 322 324 325 326 327 327 328 328 329 329 328 328 327 326 325 324 322 320 320 322 322 320 320 320 320 318 316 315 314 313 312 310 308 306 304 303 302 301 300 300
311 319 319 317 321 321 323 323 315 314 318 312 310 312 312 313 316 316 315 317 316 315 316 316 313 313 315 317 316 315 315 315 315 316 316 315 315 314 314 314 314 314 313 313 313 313 313 313 313 314 314 314 314 314 315 317 319 321 323 324 325 326 326 327 328 329 329 328 328 327 327 326 324 323 321 320 322 324 322 319 317 318 317 315 313 312 311 310 307 305 303 302 302 301 300 300 300
318 321 318 318 320 320 321 320 316 316 316 310 309 311 312 313 315 315 315 315 313 311 312 314 312 313 317 317 315 314 314 315 315 315 315 315 315 315 315 314 315 314 313 313 313 313 313 313 313 313 313 313 313 314 314 315 317 319 321 322 323 324 326 327 328 329 329 328 327 327 328 325 322 322 320 317 318 320 319 317 315 315 314 312 312 311 310 307 304 303 302 301 301 300 300 300 299
317 316 316 319 320 320 320 318 317 318 317 311 309 310 313 316 315 314 314 313 313 310 309 312 311 313 316 315 315 314 313 314 314 314 314 314 314 315 315 315 314 314 314 313 313 313 313 313 313 313 312 312 313 313 314 314 315 317 319 320 321 323 325 326 327 328 328 329 327 326 326 324 322 321 319 319 321 320 317 315 314 312 311 311 311 309 307 304 303 302 301 301 300 300 300 299 299
314 313 316 319 318 320 321 319 319 320 317 312 309 313 318 320 317 313 310 309 310 310 311 311 311 313 314 314 314 313 313 314 313 313 313 313 314 314 314 314 314 314 314 313 313 313 313 313 313 313 313 313 313 313 313 314 314 315 317 319 322 323 324 326 327 328 328 328 327 327 325 323 323 321 320 323 323 320 316 314 312 311 311 311 309 306 304 303 302 301 301 301 300 300 299 298 298
313 313 316 317 319 320 319 316 316 316 316 313 311 315 319 318 315 311 306 307 308 308 309 309 310 313 313 313 314 314 314 313 313 313 313 313 313 313 313 313 314 314 314 314 313 313 313 313 313 314 313 313 313 313 313 314 314 315 317 319 321 324 325 326 327 328 328 327 327 326 325 323 323 321 321 322 321 318 316 313 311 311 311 309 306 304 303 302 301 301 301 300 300 299 299 298 298
313 312 314 314 316 318 317 314 311 311 315 315 312 314 316 315 315 313 312 313 311 309 308 307 309 311 310 311 314 315 314 313 313 313 313 314 314 313 313 312 313 314 314 314 313 313 313 313 313 314 314 314 313 314 314 314 315 316 317 320 322 324 325 326 327 328 328 327 326 325 325 324 323 322 321 321 319 317 314 311 311 311 309 306 304 302 302 301 301 301 300 300 299 299 299 298 298
312 313 314 312 313 316 316 317 314 311 315 316 314 313 314 315 317 316 314 315 314 314 312 308 308 309 308 310 314 314 314 313 313 313 313 313 313 313 312 312 312 313 313 313 313 313 313 313 313 313 313 314 314 314 314 315 316 317 318 320 322 324 325 326 327 327 327 326 325 325 325 324 323 322 321 320 318 316 313 311 311 309 306 304 302 301 301 301 301 301 300 300 299 299 299 299 299
311 312 313 313 316 316 315 316 317 315 315 318 317 312 311 314 318 317 313 314 317 316 314 312 310 309 309 311 313 313 312 313 313 313 313 313 313 313 312 312 312 312 313 313 312 313 313 313 313 313 313 314 314 314 315 316 317 318 319 321 323 324 325 327 327 326 326 325 324 326 325 324 323 322 320 319 319 315 311 311 310 307 304 302 301 301 301 301 301 300 300 299 299 300 301 300 298
308 310 311 313 316 315 316 316 318 318 316 319 320 316 314 315 316 317 315 315 316 314 315 315 310 308 309 311 312 312 312 313 313 313 313 313 313 313 312 312 313 313 313 313 313 313 314 314 314 314 314 314 315 315 316 317 319 320 321 323 324 325 326 327 327 326 325 323 324 326 324 323 323 323 320 319 318 314 311 310 308 304 302 301 301 301 300 301 301 300 299 299 301 302 301 299 298
309 311 311 312 312 313 317 316 315 317 317 319 319 318 321 320 314 314 314 316 318 316 317 315 308 307 309 310 311 311 312 312 312 313 313 313 313 312 312 312 312 313 313 313 314 314 314 314 314 314 314 314 315 315 316 318 319 320 321 321 322 323 324 326 326 326 324 323 323 323 322 323 324 322 320 320 318 313 310 309 306 302 301 301 300 300 300 301 300 299 299 301 302 302 300 298 297
311 311 312 313 312 313 316 317 314 313 315 319 317 314 320 321 315 312 312 314 314 310 310 309 306 307 309 310 311 311 311 312 312 313 312 312 312 312 312 312 312 313 313 313 314 313 314 314 313 313 313 313 314 314 314 315 316 316 316 316 316 316 318 323 326 325 324 324 323 322 321 324 324 321 319 319 316 312 310 307 303 301 301 300 300 300 300 300 299 299 301 303 302 301 299 298 297
Wind_Speed
1 1 0 1 2 0 1 3 1 2 3 2 1 0 1 1 0 1 1 1 2 1 5 8 14 16 6 2 6 6 5 5 5 3 2 4 14 20 18 16 16 15 13 13 12 11 9 8 7 6 5 5 7 8 8 8 6 6 5 5 4 3 2 3 2 3 4 4 4 5 7 8 10 10 10 11 11 11 11 11 11 11 11 11 11 12 12 11 11 11 12 11 11 12 12 12 13
0 1 1 1 2 1 3 2 1 2 3 2 2 1 1 1 0 4 4 2 3 6 10 13 16 13 4 6 8 7 5 4 6 5 4 9 19 22 19 16 15 13 12 11 11 11 9 9 8 7 6 7 8 9 10 9 7 6 6 5 4 3 3 3 3 5 6 7 7 8 9 9 11 11 11 12 12 12 11 11 11 12 12 11 12 12 12 11 11 11 12 12 12 12 13 14 14
1 2 1 2 1 1 1 3 2 0 3 1 3 2 1 0 3 4 4 6 11 15 15 15 12 7 5 7 5 3 3 6 9 7 7 15 21 22 20 18 14 12 12 10 10 10 10 9 9 8 8 9 9 9 10 10 8 7 7 5 4 4 3 3 4 6 8 9 8 9 10 10 12 12 12 12 12 11 10 11 11 12 12 11 12 12 11 11 12 13 13 13 14 13 14 14 15
2 2 1 1 1 1 2 3 1 2 2 1 2 2 2 3 5 3 7 14 17 16 12 11 7 3 3 2 3 3 4 8 9 8 11 19 21 21 21 18 15 13 12 11 10 9 9 9 8 9 8 9 9 10 10 9 8 7 7 4 3 4 3 3 4 6 7 9 8 9 10 11 12 11 11 11 11 11 10 11 11 11 11 10 11 12 11 12 13 14 14 13 15 14 13 14 15
2 2 1 1 1 0 2 3 1 2 1 3 0 3 5 5 5 4 11 17 14 8 7 8 4 4 4 2 3 2 6 10 10 10 14 20 21 20 20 18 16 14 13 11 10 9 9 8 8 9 9 9 10 10 10 9 8 7 6 5 4 4 4 4 5 7 8 9 9 8 11 12 11 10 11 11 11 11 11 11 11 10 10 10 10 11 12 12 12 12 13 13 13 13 11 13 15
2 1 0 0 1 1 2 2 1 1 2 4 1 4 5 5 7 9 13 14 7 2 5 6 4 6 5 4 3 4 9 9 9 14 16 21 22 20 19 18 16 14 13 12 11 10 9 9 8 9 9 10 11 10 9 8 8 6 5 4 3 3 3 4 6 9 9 10 10 9 11 12 11 11 11 11 11 11 11 11 11 10 10 10 10 11 11 12 11 11 12 12 12 12 12 14 16
1 1 1 2 2 3 2 2 2 2 2 4 2 3 3 7 11 13 12 9 4 2 4 5 6 7 4 5 5 6 7 6 10 16 18 22 23 20 19 18 16 14 12 12 11 10 9 9 9 9 10 10 11 10 8 8 7 5 4 2 1 2 2 3 5 8 8 9 11 11 11 11 11 11 11 11 11 11 11 11 11 11 10 10 10 11 11 11 11 11 11 12 13 13 14 15 16
2 2 1 2 2 4 3 1 2 2 2 2 3 4 3 8 15 14 9 5 3 4 5 7 9 5 3 5 4 4 4 5 11 16 20 23 22 20 19 17 15 13 12 11 11 10 10 10 10 10 10 10 10 9 9 7 6 4 3 2 1 1 2 5 7 7 7 9 10 10 12 12 12 11 11 11 11 11 11 11 11 11 11 10 10 10 10 10 10 11 11 13 14 14 14 14 15
2 2 1 2 1 2 2 1 2 2 2 3 4 5 4 10 15 12 8 3 3 6 8 11 7 2 4 6 3 6 7 7 12 18 23 23 21 20 18 16 14 12 11 11 10 10 10 10 11 10 9 10 10 9 8 6 5 5 3 3 2 2 4 6 7 7 7 10 9 9 10 11 12 11 10 10 11 11 11 11 10 10 10 10 10 10 10 10 11 11 11 12 13 13 14 14 15
1 1 2 2 1 1 2 2 1 2 3 4 5 6 5 14 14 9 7 3 4 7 11 9 3 4 8 7 6 9 9 10 17 22 23 22 21 19 17 16 13 11 10 10 10 10 10 10 10 9 9 9 10 9 7 5 5 5 3 3 2 4 5 6 7 5 6 9 9 9 9 10 11 10 10 10 10 11 11 11 10 10 10 10 11 11 11 11 12 11 10 11 12 13 14 14 15
1 1 3 3 2 1 2 3 2 3 4 4 5 4 9 15 12 8 6 3 5 7 12 8 3 10 10 5 7 10 11 13 20 23 23 22 21 19 17 16 13 10 9 10 9 9 10 10 10 9 8 8 9 8 6 4 4 5 4 4 3 4 5 6 7 5 6 9 11 10 9 10 10 10 10 10 10 10 11 11 11 11 11 12 12 12 12 12 12 11 11 12 13 14 14 14 14
2 2 3 3 2 2 2 2 3 4 5 3 1 5 11 16 11 7 7 4 7 7 10 9 4 11 7 2 8 12 14 17 20 22 22 22 21 19 17 15 13 11 9 9 8 8 9 9 10 9 9 9 9 8 6 4 3 5 5 4 3 3 5 6 6 5 5 9 11 10 9 10 9 10 11 10 10 10 10 11 12 12 12 12 12 12 12 12 12 11 12 12 13 13 14 13 14
3 2 4 2 2 1 2 2 3 4 5 2 2 6 12 15 10 8 9 6 8 7 8 10 7 9 5 2 10 15 17 19 20 21 22 22 21 19 17 15 13 11 9 8 7 7 7 9 10 9 9 9 8 7 7 5 3 4 4 4 3 3 4 5 5 5 5 7 8 9 9 9 9 10 11 10 10 9 10 11 11 12 12 12 12 12 12 12 12 12 13 13 13 13 13 13 13
3 4 4 2 1 1 3 1 2 2 3 3 3 10 14 11 8 9 10 6 10 9 6 10 9 6 4 4 10 18 21 20 20 21 23 22 22 20 17 15 13 11 9 8 8 6 7 8 9 9 9 8 8 7 7 6 4 3 4 4 4 4 4 5 5 5 6 7 7 8 8 8 9 10 10 10 9 9 10 11 11 12 12 12 12 11 11 12 12 13 13 13 12 12 12 12 12
4 4 4 3 2 1 2 0 0 2 3 2 5 12 14 8 6 9 10 6 9 10 6 9 11 4 4 5 8 21 24 22 22 21 24 24 22 21 18 16 13 12 10 8 8 7 7 8 9 9 9 9 7 7 6 5 4 4 4 4 4 4 4 4 5 5 6 7 7 8 8 9 9 10 10 9 9 9 10 10 11 11 11 12 11 11 12 12 13 13 13 12 12 11 11 11 11
4 4 4 3 1 1 2 2 2 2 4 3 6 12 11 7 7 7 9 8 6 10 8 9 13 6 4 6 6 20 25 22 23 22 25 25 23 22 19 18 15 13 11 10 9 8 7 8 9 9 9 9 7 7 6 6 5 5 5 5 4 4 4 4 5 5 6 6 7 8 8 9 10 10 9 9 9 9 10 10 10 10 11 11 11 11 11 12 12 12 12 11 11 10 10 10 10
3 3 4 2 2 2 3 3 3 2 4 2 6 13 9 4 8 7 6 9 6 10 11 9 14 11 5 5 6 20 25 22 25 23 26 26 25 24 22 20 18 17 15 13 11 9 8 8 8 8 9 8 7 7 6 6 5 5 5 4 4 4 4 4 5 5 6 6 7 8 8 9 9 9 9 8 8 9 9 9 9 10 10 10 10 10 11 11 11 11 10 10 9 9 9 9 9
3 2 3 1 2 2 4 6 6 3 2 2 8 13 10 5 9 9 4 8 8 9 13 11 13 14 10 5 7 21 25 23 26 26 27 28 28 26 25 23 21 19 18 16 13 11 9 8 7 8 8 8 8 7 6 6 5 5 5 4 4 4 4 4 5 5 6 6 6 7 8 8 8 8 8 8 8 9 9 9 9 9 9 9 9 9 10 10 10 9 8 8 8 7 8 8 9
4 2 2 2 3 3 2 4 5 3 4 2 7 11 11 7 10 13 4 6 8 7 11 12 13 15 13 7 9 22 25 25 28 28 29 29 29 28 27 26 23 22 20 18 16 13 11 9 8 7 7 7 7 7 6 5 5 5 5 5 5 4 4 4 4 5 5 6 6 6 7 7 8 8 8 8 8 8 8 8 8 8 8 8 8 8 8 8 8 7 6 6 6 7 7 7 8
4 3 1 2 3 3 4 3 5 5 6 5 3 8 11 9 10 12 7 4 6 8 12 14 15 18 18 11 11 22 26 25 28 29 30 30 29 29 28 27 25 24 22 19 17 15 14 11 10 8 7 6 6 6 5 5 5 5 5 5 5 4 4 3 4 4 5 6 6 6 6 6 7 7 7 7 7 8 7 7 7 7 7 7 7 7 7 6 5 5 5 5 5 6 7 8 8
2 2 2 2 2 2 6 9 9 7 7 6 2 5 8 11 11 12 9 4 4 14 20 21 19 19 20 17 14 22 27 25 28 30 29 29 29 28 28 27 26 24 23 21 19 17 16 14 12 10 8 6 5 5 5 4 4 4 4 5 4 4 4 4 4 4 5 5 6 5 5 6 6 6 6 7 7 7 7 6 6 6 5 5 5 5 4 4 3 3 4 4 5 6 7 7 8
3 1 1 3 5 3 9 12 12 11 8 6 2 4 6 10 12 15 14 7 8 15 20 21 20 17 17 19 17 22 28 26 28 31 30 28 28 28 28 26 25 25 24 22 21 19 17 15 13 11 9 7 6 5 5 5 4 4 4 4 4 4 4 3 3 4 5 5 6 5 5 5 5 6 6 6 6 7 6 6 5 4 4 3 3 2 2 2 3 3 4 5 6 7 7 8 8
3 1 3 7 8 6 11 15 15 14 9 6 5 5 7 9 10 15 20 18 15 12 11 12 16 17 16 17 19 21 26 28 27 29 29 28 28 28 27 27 26 24 24 23 21 20 18 16 14 13 11 9 8 6 5 5 4 4 4 4 4 4 4 4 3 4 5 5 5 5 5 5 5 6 6 6 6 6 5 5 4 3 3 2 1 1 2 3 4 5 5 6 7 7 8 9 10
3 1 4 9 12 12 15 19 17 14 11 10 8 6 8 11 8 9 21 28 21 12 7 5 9 15 17 17 20 21 22 26 27 26 27 28 27 25 25 25 25 24 23 23 22 21 19 17 16 15 13 11 9 7 6 5 5 3 3 3 3 4 4 4 4 4 4 4 5 5 5 5 5 5 5 5 5 5 4 4 3 2 2 1 2 3 4 5 6 6 7 8 8 8 9 11 12
2 2 7 11 15 16 19 20 16 12 12 12 9 9 10 13 9 8 20 26 23 19 13 6 6 12 18 18 19 21 22 25 27 27 26 27 26 24 24 24 24 24 24 23 23 22 20 18 17 15 14 12 10 9 7 5 5 4 3 3 3 4 4 4 4 4 4 4 5 5 5 5 5 5 5 5 4 4 4 3 2 2 2 3 4 5 6 7 8 8 9 9 9 9 10 12 14
1 2 9 13 15 18 19 16 12 10 10 8 7 10 9 9 8 11 21 22 20 23 19 13 9 10 17 19 20 22 23 24 27 28 27 27 27 26 25 24 24 24 24 24 23 22 20 18 17 16 14 13 11 9 8 7 6 5 4 3 3 3 3 4 4 4 4 4 5 5 5 6 6 6 6 5 5 4 4 3 3 4 5 5 6 7 8 8 9 10 11 11 12 11 12 14 16
0 7 13 13 12 16 17 14 13 10 8 8 7 6 5 5 5 8 14 15 18 22 22 19 13 11 15 19 20 21 23 23 25 27 27 28 29 28 26 26 25 24 24 24 24 22 20 19 17 16 15 13 12 10 9 8 7 6 6 6 5 4 4 4 4 5 5 5 5 5 5 5 5 5 5 5 5 5 5 5 5 6 7 7 8 9 10 11 12 13 13 13 14 14 15 17 18
2 9 12 13 12 16 16 13 13 8 5 8 9 3 2 4 4 8 8 8 14 19 21 20 17 14 14 18 20 22 24 22 23 27 29 29 30 29 28 27 26 25 24 24 23 22 20 19 18 16 15 14 13 12 10 10 9 8 8 8 8 7 7 6 5 6 6 6 6 6 6 6 6 6 6 6 6 7 7 7 8 9 10 10 11 11 12 13 14 15 16 16 16 17 18 17 15
2 6 5 10 11 12 12 9 9 6 3 5 7 3 3 4 8 12 9 8 11 15 19 19 18 15 14 18 21 22 24 23 24 27 28 28 28 29 29 27 26 25 24 23 22 23 21 19 19 17 17 16 14 13 12 11 10 10 9 9 9 10 9 8 8 7 8 8 8 8 8 8 8 8 8 9 9 10 10 11 11 12 13 13 13 14 15 15 16 17 18 17 17 16 15 12 10
1 2 1 5 7 7 6 4 5 6 4 6 8 3 5 7 14 13 9 11 12 13 17 19 18 16 16 18 21 22 23 24 25 25 26 27 27 28 28 27 26 26 24 23 23 23 22 20 20 19 18 17 16 15 14 13 12 11 10 10 11 11 11 10 10 10 10 10 10 10 10 11 11 11 11 12 12 13 13 14 14 15 15 15 15 15 16 16 16 16 16 16 15 14 12 8 6
1 1 0 1 2 4 5 4 2 4 3 9 8 3 6 7 13 13 11 12 13 15 17 19 20 18 18 20 21 22 23 24 24 24 25 25 26 27 27 27 26 25 24 24 24 23 22 22 21 20 19 18 18 17 15 14 13 12 12 12 12 13 13 12 12 12 12 12 12 12 12 13 13 13 14 14 15 15 15 15 15 15 15 14 13 13 13 13 14 14 13 14 14 13 9 5 5
2 1 2 1 1 4 8 6 6 5 2 7 7 2 6 8 10 9 14 15 14 16 18 18 21 20 20 22 23 23 22 24 24 24 25 25 25 26 27 27 26 25 24 23 22 22 23 23 22 22 21 20 19 18 17 16 15 14 13 14 14 15 14 14 13 13 13 13 14 14 14 15 15 15 15 15 15 15 15 14 12 13 14 12 10 10 10 10 11 11 11 13 12 10 6 5 6
3 1 2 1 1 2 6 6 6 5 2 5 5 2 4 4 4 3 9 17 16 17 19 19 21 21 22 23 24 24 24 25 25 25 25 25 26 26 26 26 26 25 24 23 22 23 23 23 23 23 22 22 21 19 19 18 17 16 15 15 16 16 16 15 15 14 14 14 15 15 16 16 16 15 14 14 14 14 13 12 11 12 13 10 8 8 9 11 10 9 8 9 9 8 7 7 8
2 1 1 2 2 2 4 4 2 1 2 3 5 4 6 6 5 3 1 10 15 18 18 19 20 22 23 24 25 26 26 26 25 24 23 24 25 26 26 26 26 26 25 25 24 24 23 23 24 23 23 22 21 21 20 20 19 18 17 17 17 18 18 17 17 16 15 15 15 15 16 16 15 14 13 13 13 12 12 11 12 13 12 10 8 8 10 13 12 8 5 6 7 7 8 10 11
4 3 3 3 3 3 4 5 4 3 1 3 4 6 10 11 12 10 5 5 12 17 17 17 20 22 23 25 27 27 28 28 24 22 21 23 25 25 26 26 27 27 27 27 26 26 25 25 25 24 23 22 22 22 21 21 21 20 20 19 19 19 19 19 18 17 15 15 15 15 15 15 15 14 12 12 12 12 12 11 11 12 10 9 9 8 9 13 12 7 4 5 7 8 9 11 13
8 6 5 3 3 4 4 5 4 2 2 5 5 7 10 11 13 13 9 8 10 13 16 18 20 22 23 25 28 28 29 28 23 22 23 24 25 25 26 26 27 28 28 28 28 28 28 27 27 26 25 24 23 23 22 23 23 23 23 22 22 21 19 19 19 18 17 17 17 16 15 15 16 15 12 12 12 11 11 9 8 10 9 8 8 8 10 12 10 7 6 9 9 10 11 12 14
9 6 4 4 2 3 3 5 5 2 1 5 5 7 10 11 11 10 8 8 9 12 16 20 22 23 24 26 28 29 30 27 22 24 27 26 26 25 26 27 27 28 29 30 30 30 30 29 29 28 27 25 25 25 25 25 25 25 25 24 24 22 20 20 20 20 19 19 18 17 16 15 16 15 12 12 11 11 12 10 9 9 8 9 10 9 10 10 7 6 9 10 11 11 12 14 15
9 6 4 2 1 3 4 6 5 2 1 5 3 5 10 11 12 10 7 7 11 17 18 20 23 24 26 28 29 31 30 27 26 28 29 28 27 26 27 27 28 29 28 30 31 31 31 30 31 30 28 27 27 26 26 27 27 26 25 25 23 21 20 21 21 20 18 18 19 19 17 17 17 16 14 13 13 14 14 14 12 10 10 11 11 10 9 8 7 8 11 11 11 12 12 14 15
7 5 4 2 1 2 5 4 4 3 1 5 4 3 9 11 12 11 11 12 17 22 23 23 23 22 25 28 30 32 31 29 29 30 30 28 28 28 29 29 28 28 27 29 30 30 31 31 32 31 30 30 28 27 28 28 27 25 24 22 20 19 20 20 20 19 17 17 19 19 18 18 18 17 15 14 14 16 16 15 14 12 12 11 10 9 8 8 9 11 13 13 13 13 12 13 14
4 5 5 3 2 2 2 2 4 2 2 3 5 5 8 9 9 9 14 21 22 23 23 24 24 22 25 26 26 29 31 32 31 30 29 28 28 30 31 31 28 28 28 30 30 30 31 32 33 32 31 31 30 29 28 27 26 23 22 21 19 19 19 19 19 19 19 19 18 18 18 18 18 17 17 17 18 18 16 14 14 12 10 9 9 9 10 10 10 11 13 13 14 13 12 12 12
2 4 5 4 5 4 3 3 6 4 1 2 4 6 7 7 8 8 10 14 17 20 21 23 25 26 27 25 24 25 28 31 32 30 28 27 28 29 30 30 29 30 31 30 30 30 31 31 32 32 32 32 31 30 29 27 26 25 24 23 22 22 21 21 21 21 21 21 19 18 18 19 19 17 16 17 19 18 15 12 11 10 9 10 11 12 13 13 12 13 14 15 16 15 12 12 12
1 3 5 6 6 5 3 4 5 4 3 1 0 4 6 4 6 8 6 4 9 13 15 21 27 28 27 26 26 26 25 28 31 31 29 28 29 29 30 31 31 32 32 30 29 30 30 30 31 32 32 32 32 31 30 29 29 27 27 26 26 26 25 25 24 23 23 23 20 17 17 19 20 18 16 15 17 16 15 13 11 11 12 13 13 13 14 15 15 15 15 15 15 14 12 11 9
1 5 8 8 7 5 3 4 2 0 4 2 3 4 6 6 6 8 4 4 8 8 8 17 25 26 27 29 30 29 27 27 30 31 30 29 30 30 31 31 32 33 31 29 30 31 31 30 31 32 32 33 32 31 31 32 32 30 29 28 28 27 27 26 24 22 21 20 18 16 16 18 19 19 17 15 16 16 15 14 13 14 14 16 15 14 15 16 15 12 10 10 9 8 6 5 4
2 6 12 12 10 8 6 2 1 2 4 4 3 4 4 7 7 4 1 4 8 7 7 13 20 25 28 30 31 32 30 29 29 31 30 29 29 29 29 30 31 31 29 30 32 32 31 30 31 32 33 33 32 32 33 33 33 32 31 30 29 28 27 25 21 20 19 17 16 16 16 17 18 19 18 18 19 19 17 16 16 16 16 17 17 17 16 14 11 8 6 5 3 2 1 1 2
2 5 9 11 9 7 6 4 3 2 2 6 5 3 2 7 6 3 1 4 8 9 8 10 18 26 30 32 33 32 33 32 30 30 30 30 30 27 26 26 26 28 28 31 33 32 31 31 32 33 33 33 33 33 34 34 34 33 32 30 30 29 26 24 22 21 19 18 18 17 17 19 20 19 18 19 20 20 19 18 19 19 19 19 19 18 15 12 9 7 4 3 2 2 1 2 3
3 6 6 5 5 4 5 4 2 1 2 9 6 4 4 7 4 1 2 4 7 8 7 9 17 24 29 32 34 33 34 34 33 32 32 32 32 29 26 24 25 26 28 30 30 31 31 32 33 33 33 33 33 34 34 34 34 33 33 32 30 29 27 26 25 23 22 21 20 19 20 21 22 19 17 17 18 19 19 20 21 21 19 18 17 14 10 9 7 5 4 4 3 2 2 2 3
8 7 7 6 5 4 3 2 3 2 5 7 3 5 4 5 4 5 5 5 7 7 6 8 15 20 24 27 30 31 33 34 35 36 36 36 35 33 30 28 27 27 27 29 30 30 32 33 34 34 33 32 32 33 34 34 35 35 34 33 31 30 28 28 27 26 25 24 23 22 23 23 22 20 17 15 16 19 20 22 21 19 17 16 13 9 7 7 7 6 6 5 3 2 2 2 3
8 4 5 5 3 3 3 3 2 2 6 3 3 2 5 6 6 3 5 6 6 7 7 8 13 21 25 25 25 26 27 30 33 36 39 39 39 38 35 33 31 29 29 30 30 29 30 32 34 34 34 33 33 33 34 34 35 35 35 33 32 31 30 29 28 28 27 26 25 24 24 25 24 21 19 18 20 22 23 22 18 15 15 13 10 9 9 8 8 7 6 4 3 2 2 3 4
5 4 6 4 2 2 0 1 0 4 5 2 2 2 4 9 7 5 9 7 8 10 12 14 16 22 27 26 23 20 21 26 29 32 36 38 40 40 39 38 34 32 31 30 30 29 29 30 32 35 35 35 34 34 34 34 35 35 35 34 32 31 31 30 29 29 28 27 27 25 26 28 26 23 22 20 21 23 22 19 15 14 13 12 11 11 10 10 9 8 6 4 2 2 2 4 5
5 6 7 5 3 2 4 3 1 5 5 3 3 2 4 7 4 9 13 11 14 17 18 21 21 22 24 24 21 19 20 24 26 29 31 33 36 37 39 39 37 34 32 30 30 29 29 29 30 33 34 34 35 35 35 35 35 35 34 33 32 31 31 30 29 29 28 27 27 26 27 28 25 23 21 18 20 21 19 16 15 14 14 13 13 12 12 11 9 7 5 3 2 2 3 5 5
6 5 5 6 6 4 5 5 4 4 3 3 2 2 4 4 2 8 11 12 17 18 20 21 22 23 24 24 23 22 22 23 24 26 28 29 31 33 36 37 37 35 32 31 31 31 31 30 30 30 32 33 35 35 35 35 35 35 34 33 32 32 31 30 30 29 29 28 27 26 27 27 26 23 20 21 24 22 17 16 16 16 16 15 14 13 12 11 9 6 5 3 2 2 4 4 5
2 1 2 4 5 3 3 3 3 2 0 2 3 3 5 3 5 9 8 10 14 18 20 20 23 25 24 26 28 27 26 24 22 23 24 26 27 29 32 35 36 35 33 33 32 32 31 31 30 30 30 31 32 34 35 35 35 34 34 34 33 32 31 30 30 29 29 28 28 27 27 26 25 21 20 23 25 20 16 17 18 18 17 16 15 14 12 10 8 6 4 2 2 2 3 4 5
1 2 4 3 3 4 4 2 1 4 2 3 3 6 5 3 8 11 7 7 9 11 14 18 26 27 23 25 30 30 30 26 23 23 22 23 24 25 28 31 34 34 34 34 32 31 32 32 32 32 31 31 32 33 33 33 34 34 34 34 33 32 31 30 30 29 28 28 28 28 27 26 24 21 21 24 22 16 16 19 20 19 17 16 16 14 12 10 8 6 4 2 1 1 2 4 5
6 6 7 4 2 2 3 1 1 2 4 4 2 7 5 2 6 6 4 8 9 8 9 14 22 24 22 28 31 31 30 27 24 22 21 21 20 21 24 26 29 30 31 31 31 31 32 33 34 34 33 33 32 32 32 33 33 34 34 33 32 32 31 30 30 29 29 29 28 28 27 26 24 22 22 23 20 16 18 21 21 19 18 17 16 14 12 10 7 6 4 3 1 1 3 4 6
4 5 9 7 2 3 3 3 2 3 4 3 3 4 4 5 6 4 3 9 10 10 9 8 13 19 24 31 32 29 27 25 22 21 20 19 18 18 21 23 25 27 28 28 29 30 31 31 32 32 33 33 32 33 33 34 34 34 34 33 32 32 30 30 29 29 30 29 27 28 29 26 23 22 22 22 19 18 22 23 21 20 19 18 16 14 12 9 8 6 4 3 2 1 3 4 6
2 3 7 3 0 3 4 3 2 3 4 3 3 3 3 7 6 4 6 8 9 10 9 6 11 17 20 22 23 23 23 22 21 21 21 19 18 18 20 23 24 25 26 27 27 27 28 28 29 30 31 31 32 33 33 34 34 34 33 32 32 31 30 29 29 29 30 28 27 29 28 25 23 23 23 21 18 20 24 23 21 21 20 18 16 14 12 10 8 6 5 3 1 1 2 4 5
4 6 8 4 1 2 1 2 2 3 4 3 2 3 6 5 4 8 10 9 10 10 9 8 11 12 10 11 13 14 16 16 16 18 21 20 18 18 20 23 23 24 24 24 25 25 26 27 28 29 30 30 31 32 33 34 34 33 33 32 32 31 30 29 29 30 30 28 29 29 25 24 25 25 24 21 19 23 26 23 22 21 20 18 15 14 12 10 8 7 5 3 1 1 2 4 5
7 7 8 9 6 3 3 5 3 3 3 4 2 5 8 5 4 7 10 8 6 4 5 8 9 8 7 7 8 10 12 12 12 14 18 19 18 18 20 21 22 22 23 23 23 25 26 27 29 30 31 32 32 33 33 34 34 34 33 32 31 31 29 29 30 31 30 29 28 27 24 25 27 27 25 22 22 26 26 24 23 22 20 18 16 14 12 10 9 7 5 3 2 2 3 4 5
Wind_Direction
134 196 107 20 332 194 26 12 78 20 62 89 312 171 230 213 278 181 190 233 159 165 149 146 154 153 148 174 168 130 111 155 164 157 191 161 148 150 154 157 154 157 166 165 165 172 182 183 177 171 169 158 158 159 154 147 140 143 132 131 136 110 86 72 80 121 130 118 110 112 103 100 106 110 107 102 99 98 97 97 95 92 89 88 87 82 79 75 73 76 80 80 72 68 72 72 67
249 264 272 210 344 284 253 7 78 332 40 54 286 188 269 314 228 185 187 216 152 125 132 139 148 151 132 129 134 110 100 138 152 155 153 150 150 151 151 150 150 157 161 163 165 168 176 175 171 164 154 146 146 152 155 151 141 146 142 145 147 110 79 51 66 115 122 110 109 111 104 103 103 103 100 96 94 95 96 95 94 92 89 85 83 80 78 78 77 78 80 79 74 67 69 71 65
283 265 268 211 335 6 228 31 65 65 61 44 276 235 268 197 200 207 186 151 126 121 123 133 139 139 117 117 127 121 127 142 144 142 145 154 154 152 148 145 147 154 156 162 165 165 167 167 169 156 145 143 138 141 149 153 147 149 149 144 139 116 84 53 87 111 116 112 107 105 106 106 102 98 96 96 96 96 97 95 92 93 92 87 82 81 79 79 75 74 76 73 73 67 66 69 62
282 244 229 212 244 13 60 48 105 120 85 205 295 263 222 190 204 213 150 135 125 121 124 133 129 130 130 122 146 136 144 155 156 154 156 158 157 151 145 143 147 150 153 163 167 166 166 167 168 156 145 141 136 136 141 148 149 152 151 142 129 112 90 88 113 110 110 117 113 105 104 104 102 99 96 96 96 93 91 92 93 95 95 91 86 85 80 76 73 74 76 72 74 72 64 61 55
273 243 236 282 259 1 83 71 99 97 134 188 34 272 223 200 199 170 148 145 132 113 133 142 120 130 126 121 154 157 157 158 167 169 163 161 157 151 144 141 146 148 152 161 166 169 171 171 169 158 147 138 137 138 140 145 151 154 146 134 116 95 91 105 109 104 110 117 117 107 101 103 104 100 96 93 91 90 90 92 95 97 96 92 89 87 81 77 75 74 77 76 77 76 66 53 49
265 240 256 308 116 91 119 103 109 167 230 177 178 263 231 209 184 155 152 159 156 95 146 155 147 143 122 104 115 126 149 160 174 171 167 163 157 149 143 140 143 145 151 157 163 170 172 172 168 159 152 141 139 139 141 150 155 149 139 133 110 78 90 118 100 99 110 114 115 109 104 106 105 97 94 94 91 91 91 91 92 94 94 91 89 88 83 77 72 69 72 74 71 66 58 49 46
238 213 45 105 87 33 105 142 172 225 226 172 188 245 243 207 173 150 149 164 195 211 167 177 161 142 121 115 118 125 152 183 177 173 170 161 154 147 143 140 141 143 148 154 159 167 169 167 163 162 157 144 144 143 142 159 165 150 151 153 121 82 96 132 109 105 111 108 108 105 105 108 107 101 96 96 93 93 92 90 88 88 89 88 88 89 86 78 71 68 66 64 62 56 50 47 45
194 212 353 111 48 23 88 141 217 213 211 224 238 244 259 193 168 152 155 168 181 189 174 166 157 140 141 143 142 145 146 170 171 173 166 156 153 147 143 140 139 142 144 150 155 161 163 163 162 162 156 146 147 148 150 170 179 166 175 170 130 105 113 135 124 117 112 101 100 99 104 105 106 103 97 96 93 94 93 90 86 84 84 82 84 87 87 82 76 72 63 58 57 52 48 47 47
162 211 352 101 89 39 52 342 246 248 251 261 253 250 244 178 168 155 157 171 169 171 165 158 161 182 160 149 139 143 133 147 160 163 160 155 153 146 142 139 136 140 142 146 152 156 161 163 161 160 154 149 149 156 169 183 184 180 181 164 146 127 125 134 129 125 114 104 103 98 102 106 106 105 100 95 93 93 90 86 82 82 83 80 82 82 82 79 78 73 61 57 56 52 49 46 47
121 191 113 89 117 44 322 298 247 264 249 253 258 251 193 170 166 157 157 162 173 164 163 163 177 165 152 148 137 144 141 147 156 158 160 156 152 148 143 139 135 139 140 141 147 155 162 164 161 162 162 159 159 167 184 194 196 189 174 159 161 138 122 119 117 117 109 107 110 99 98 109 110 109 105 98 93 91 87 84 83 83 82 82 83 81 79 73 73 70 62 61 59 54 50 46 47
118 30 112 78 93 144 247 246 271 272 268 284 274 227 173 170 160 155 162 154 173 163 166 175 185 154 142 144 149 150 151 154 159 158 159 158 154 151 147 141 138 138 137 137 143 155 162 163 160 164 171 174 176 182 190 195 191 169 149 147 151 132 110 104 104 95 84 94 106 102 101 112 114 113 109 101 93 88 84 83 83 82 80 80 79 76 75 73 72 70 66 63 60 57 53 50 49
178 23 88 88 145 199 210 215 268 286 302 313 229 182 167 170 163 164 173 169 173 166 180 187 184 158 133 148 165 156 156 157 161 160 159 161 158 154 151 145 141 140 138 136 138 152 157 155 154 158 166 176 186 195 200 193 153 130 125 123 121 117 106 98 94 86 76 88 103 107 111 112 110 111 106 101 94 87 83 82 83 83 82 81 79 78 77 79 79 77 72 65 60 57 56 54 53
170 124 96 117 173 175 167 204 272 317 320 269 175 168 166 172 178 186 174 169 174 166 196 197 187 169 146 183 172 164 163 161 162 164 164 164 163 157 155 150 146 145 141 139 138 143 151 148 148 153 157 167 181 195 203 201 162 127 123 116 109 107 107 101 95 92 89 94 103 107 110 106 107 111 107 104 98 92 90 88 89 88 87 86 83 84 84 85 84 81 76 69 63 58 56 56 55
140 141 111 133 112 98 161 248 308 2 300 256 170 163 167 178 192 195 176 169 189 180 192 197 189 179 173 176 180 175 167 165 166 167 169 169 167 161 159 157 153 154 150 147 143 139 145 144 146 150 153 159 170 182 191 197 193 157 131 116 111 110 113 112 107 103 105 108 109 107 107 103 107 116 114 110 104 99 98 97 97 95 92 89 86 86 86 85 82 79 75 72 68 62 57 53 51
116 122 99 108 56 352 179 266 2 106 256 225 156 168 169 182 192 199 196 192 204 194 180 187 186 190 200 184 190 181 168 166 170 169 172 172 170 167 165 165 163 163 163 158 150 146 142 143 147 147 150 153 158 164 169 173 168 143 121 114 116 120 126 123 121 123 122 119 118 115 112 112 114 119 119 114 110 108 107 107 103 99 96 93 90 88 86 82 78 75 73 70 67 63 58 52 46
89 100 77 93 84 249 181 187 165 115 258 207 157 172 168 186 187 190 211 210 210 198 192 189 190 206 208 177 181 179 170 167 169 171 173 173 174 173 171 172 174 171 173 173 162 155 146 143 150 149 148 147 147 146 145 147 139 128 123 124 128 132 140 135 133 134 131 128 124 124 123 122 120 119 120 118 118 117 113 110 104 101 98 95 93 89 85 81 77 72 70 67 63 59 54 49 43
60 82 65 93 147 210 193 185 190 171 268 234 175 178 164 183 194 191 216 209 211 204 202 201 201 211 199 174 172 175 173 167 168 173 175 176 179 178 178 179 181 179 179 181 173 166 158 149 150 150 148 146 146 142 140 145 140 139 139 135 139 149 155 147 144 138 132 130 128 132 131 125 122 123 127 127 123 118 114 111 107 103 98 96 95 90 86 80 77 71 67 62 57 55 47 42 37
40 107 89 160 174 190 185 183 196 173 324 245 191 187 176 183 190 186 197 203 213 213 207 210 210 213 204 194 174 174 175 170 169 175 178 180 183 183 183 182 184 186 183 184 180 175 169 160 154 146 144 145 147 148 153 159 157 160 158 153 158 164 164 156 147 137 131 130 133 137 133 128 131 135 134 129 124 120 119 116 110 106 102 100 94 88 85 79 76 70 64 57 50 45 37 34 29
49 99 104 200 202 233 225 202 211 193 337 303 190 192 194 201 185 183 195 202 202 206 211 213 215 216 207 195 173 176 179 174 172 177 182 184 187 187 187 185 186 188 187 187 184 180 176 172 166 152 143 142 143 148 155 162 167 174 171 168 170 168 164 158 143 135 134 134 136 137 135 137 139 140 136 128 126 126 125 120 114 110 105 99 93 86 81 76 73 67 59 50 39 32 24 20 16
48 64 111 219 229 278 323 316 289 269 296 324 201 197 206 213 190 187 198 187 195 214 215 211 216 218 209 197 177 180 183 179 175 180 185 187 189 190 190 189 188 189 190 189 187 185 182 180 179 169 157 146 139 141 147 155 165 176 176 171 167 162 157 153 148 142 139 135 136 138 138 140 141 139 135 130 129 130 126 122 118 112 106 97 91 84 77 70 64 55 44 33 22 16 10 6 6
353 75 160 256 349 326 342 351 341 318 290 306 259 192 216 217 199 195 186 155 226 234 227 222 226 224 211 204 187 183 188 185 180 185 189 189 191 193 194 193 191 191 191 191 190 190 187 185 186 182 173 164 152 145 150 157 164 168 167 166 158 154 157 160 160 152 143 135 131 134 135 136 140 140 137 135 133 132 129 124 119 111 104 94 86 80 73 61 43 26 12 4 0 359 357 356 354
319 198 100 22 27 344 331 344 343 334 314 291 227 187 224 211 205 206 191 188 232 237 238 236 238 236 222 213 196 187 193 192 187 189 191 191 194 196 197 198 197 195 194 195 194 192 192 189 189 189 188 184 176 170 168 166 162 157 150 150 147 148 159 168 170 164 150 136 129 126 133 141 145 147 143 141 137 134 130 123 119 111 103 89 78 66 43 20 358 344 340 342 345 346 344 340 335
319 260 32 21 9 330 324 334 327 322 310 276 244 230 224 201 215 218 206 217 230 238 252 251 244 237 230 220 203 194 196 198 196 194 194 194 197 199 200 201 202 202 199 199 197 195 195 193 193 194 196 197 195 192 185 180 173 160 146 139 141 147 153 164 174 167 149 137 134 130 136 151 158 159 155 150 147 139 133 129 129 120 110 91 51 345 324 319 320 320 323 328 334 336 330 323 321
269 263 352 349 343 327 323 327 319 310 290 272 264 250 226 208 217 225 221 228 229 233 250 257 247 230 225 221 212 208 205 204 203 200 199 198 200 203 205 205 206 207 205 203 201 199 199 198 199 197 199 203 205 205 197 194 191 175 153 135 135 144 148 159 164 154 144 142 144 142 145 157 165 167 163 160 158 151 149 152 155 155 159 209 276 288 293 298 305 309 312 318 324 324 318 316 317
219 267 334 334 333 329 327 326 319 310 288 274 256 244 241 222 216 232 235 234 229 229 235 247 250 225 222 222 217 214 209 208 206 202 202 202 203 206 209 210 209 209 209 207 204 204 203 203 203 203 203 205 209 210 207 206 204 198 180 158 141 142 151 163 162 151 147 151 151 152 158 164 169 170 169 173 174 169 176 187 199 220 233 247 264 277 285 291 299 302 306 310 312 311 309 311 313
142 308 325 322 326 331 329 324 319 313 289 267 236 246 255 227 221 252 249 242 234 231 232 240 250 233 225 224 222 217 213 211 208 204 204 204 205 208 209 211 211 210 210 209 206 206 207 208 208 207 207 209 214 215 215 214 214 214 208 202 185 165 173 173 167 168 167 165 161 163 169 173 179 180 179 187 192 194 203 217 237 252 259 265 271 280 284 289 294 295 297 299 301 302 300 303 309
328 338 321 305 319 329 323 312 300 296 284 252 219 248 265 201 197 253 251 239 232 230 230 235 243 245 232 225 223 220 217 217 213 208 205 205 207 208 210 210 210 210 209 209 208 208 210 212 212 211 212 213 217 220 220 219 221 220 219 221 215 210 214 199 185 184 183 186 185 184 187 190 196 198 199 207 215 220 225 236 245 254 264 270 274 279 283 285 286 287 290 294 296 296 295 302 314
319 347 317 295 319 326 314 301 284 271 270 243 213 242 288 164 203 240 239 228 223 223 226 230 234 242 235 223 221 219 220 220 218 213 210 209 208 207 209 210 209 209 210 209 209 211 213 215 215 215 215 217 219 221 222 223 225 222 221 224 223 225 228 223 210 199 197 202 208 212 214 218 220 225 229 234 241 245 248 253 255 256 262 265 269 272 275 279 281 285 289 292 293 292 295 304 317
341 9 317 300 328 326 310 294 261 222 230 227 188 252 280 193 228 236 230 228 222 217 220 224 228 234 229 220 219 220 221 220 220 218 216 214 212 210 210 210 210 211 212 211 212 215 216 218 219 218 219 220 221 222 225 226 227 226 224 224 226 229 229 230 225 218 216 216 219 226 232 237 239 243 248 250 252 253 254 255 256 257 260 263 267 270 273 278 282 288 292 294 295 296 303 311 319
257 48 35 316 328 313 310 306 234 192 201 185 162 254 274 233 237 232 224 227 222 218 218 220 223 227 224 219 218 221 222 222 223 222 220 218 217 216 214 213 213 214 216 215 218 219 220 221 221 222 222 223 224 225 226 228 230 231 229 226 228 231 230 230 229 228 228 227 230 233 238 243 246 249 251 253 254 255 256 257 260 262 265 268 272 276 281 288 293 298 302 305 307 309 319 325 322
134 104 188 326 305 277 306 336 176 173 207 179 163 250 268 264 255 237 227 230 224 222 223 221 221 223 223 221 219 222 224 225 226 226 223 222 222 221 218 217 216 218 219 219 222 223 224 224 224 225 226 226 227 228 230 231 233 235 234 231 230 231 231 229 229 231 233 236 240 242 245 247 248 250 252 254 256 258 261 263 266 269 272 279 287 295 300 305 308 314 319 317 317 319 325 331 321
65 217 258 20 191 275 309 303 195 182 214 181 167 244 262 281 283 249 227 225 225 227 228 225 222 222 223 224 223 224 226 226 227 227 226 225 225 224 222 221 220 219 220 221 222 223 224 225 227 229 229 230 231 232 234 235 237 238 238 236 232 232 230 228 228 232 236 240 242 244 248 249 250 252 255 259 261 263 266 268 272 276 286 300 307 312 322 326 323 326 326 320 323 328 328 323 314
34 217 239 350 328 318 320 302 212 190 140 188 207 253 268 280 307 303 226 221 221 225 229 227 226 225 224 226 226 226 226 225 226 227 226 225 225 225 224 223 222 221 220 221 221 222 223 224 227 231 230 231 233 235 237 238 240 241 242 240 236 232 229 227 227 230 235 239 242 246 248 250 252 254 258 264 267 271 274 280 284 286 300 316 316 322 337 335 332 333 330 329 339 348 341 328 315
42 48 201 226 255 296 299 313 304 238 125 202 226 233 248 258 274 328 263 223 221 224 229 229 229 228 226 227 227 228 227 226 228 227 226 226 226 226 226 226 225 224 222 222 222 223 225 226 229 232 233 233 235 236 239 241 242 242 242 241 238 234 229 227 226 228 233 238 242 247 252 255 256 257 262 265 270 275 278 281 285 292 307 318 316 332 340 330 330 337 337 340 345 350 344 330 320
171 168 185 214 215 227 258 282 325 350 304 229 210 230 253 263 269 268 269 248 231 232 235 234 235 232 228 227 227 229 229 230 230 230 230 229 229 228 227 228 228 227 226 224 224 225 227 228 229 233 235 236 236 237 238 239 240 240 238 236 235 233 229 227 227 228 232 239 242 247 254 259 260 263 266 266 268 275 280 282 286 293 305 316 318 323 320 314 317 320 320 333 336 338 337 326 319
171 170 172 175 207 230 245 262 294 343 287 254 218 230 251 255 262 258 244 244 241 243 242 237 239 237 233 231 230 231 232 233 233 231 233 232 232 232 230 231 230 230 229 228 227 227 228 228 229 231 233 236 238 237 237 235 235 235 234 234 233 231 230 231 232 233 234 236 239 243 250 256 260 265 268 267 267 274 285 294 296 294 296 313 320 307 292 291 297 302 316 330 330 331 332 322 316
141 135 164 155 178 271 274 263 289 2 256 260 235 237 256 255 260 257 231 233 239 239 241 240 240 241 239 237 235 235 236 237 235 233 233 233 234 235 234 234 233 233 232 231 229 228 228 229 230 230 231 234 236 235 234 232 231 230 230 231 232 231 231 234 237 238 239 239 239 240 246 253 258 264 265 264 267 275 282 284 283 285 294 306 305 295 281 279 292 308 318 326 324 320 319 313 313
131 129 158 150 148 277 278 267 288 349 211 264 278 259 264 262 264 260 221 215 236 235 237 241 241 242 243 243 241 240 240 241 237 235 234 233 234 235 236 237 236 236 234 233 232 230 230 230 231 230 230 233 234 235 233 231 231 230 231 232 234 234 233 236 240 243 248 250 247 243 244 250 256 266 269 268 270 270 273 276 276 281 289 291 290 290 284 280 294 305 304 308 312 312 304 302 311
136 131 135 167 179 294 288 291 333 2 214 271 318 286 264 263 262 254 222 222 243 243 244 248 247 245 245 247 247 245 243 241 238 237 236 234 234 234 236 237 237 239 238 237 235 234 233 232 232 231 230 231 232 234 234 231 230 230 233 236 238 239 238 240 244 248 252 254 251 245 243 246 251 259 266 267 267 266 268 269 269 273 276 275 275 282 291 291 289 293 295 291 296 302 294 296 311
142 142 146 185 140 91 272 314 352 338 192 257 312 306 274 267 264 259 236 233 245 249 248 252 250 248 251 253 256 253 247 243 240 238 236 234 234 234 235 236 237 238 239 238 237 235 234 232 232 233 231 231 231 233 233 232 230 230 233 235 238 241 239 239 242 245 246 250 253 246 243 246 249 253 256 257 260 267 270 262 258 261 261 260 265 273 279 286 286 288 289 283 288 296 296 302 315
172 167 164 166 153 155 214 306 331 314 262 236 304 307 277 260 257 262 246 232 242 247 243 247 247 247 251 253 257 258 251 246 244 241 237 235 234 234 235 236 236 237 237 238 237 236 235 233 233 233 233 232 231 232 232 232 230 228 229 232 235 237 236 236 237 238 241 246 251 247 241 242 245 250 253 253 257 263 260 247 242 246 247 252 264 275 274 276 283 283 283 285 290 295 302 311 318
199 212 180 157 162 170 216 306 343 342 318 287 306 282 270 280 261 249 248 225 239 242 233 239 244 245 245 248 254 257 254 247 244 243 240 238 237 237 237 237 237 237 237 237 238 238 238 237 236 235 235 233 232 232 231 232 231 229 229 231 233 233 234 234 233 235 238 244 249 251 246 241 240 242 244 250 256 257 248 238 236 241 250 254 257 270 270 267 272 276 282 290 291 292 298 306 316
208 203 168 160 165 157 206 279 340 243 273 265 147 227 270 302 271 243 236 237 247 248 238 242 245 244 242 246 252 255 254 249 243 242 241 239 239 239 239 239 238 238 238 237 238 239 239 238 238 237 236 235 233 231 230 231 231 231 231 233 234 236 238 237 237 238 241 246 252 254 250 243 240 237 236 240 246 248 242 237 243 249 253 251 250 261 263 257 264 276 290 296 291 287 290 299 325
227 192 166 173 179 175 186 203 226 233 285 288 195 183 268 278 264 257 188 241 262 266 261 255 249 244 242 245 249 251 253 251 246 243 241 239 238 238 240 240 241 240 238 237 237 237 238 238 238 238 237 236 234 232 231 230 231 231 231 233 236 237 240 242 245 247 249 251 251 253 250 247 246 241 234 232 236 245 246 239 243 247 245 245 251 260 262 260 271 288 293 284 272 266 263 329 21
235 186 166 176 172 169 156 131 207 253 331 277 246 149 238 259 266 335 24 234 254 259 255 252 247 244 243 243 246 249 249 249 248 246 242 238 237 237 240 242 244 242 238 235 236 236 236 237 237 238 236 235 234 232 231 231 231 232 232 233 235 237 240 243 246 249 251 248 246 248 247 245 250 250 240 232 233 242 248 245 244 243 242 245 249 254 260 266 274 275 260 229 199 193 147 69 51
171 142 112 108 96 104 114 123 171 85 269 253 238 172 232 261 252 276 287 234 236 248 253 248 247 246 245 246 246 248 248 247 248 247 243 241 239 239 240 243 243 241 236 233 233 233 233 233 235 235 235 234 234 233 231 231 231 232 232 233 234 236 239 241 243 244 245 246 245 246 246 246 250 253 247 239 238 240 242 243 243 244 247 247 245 247 254 255 247 229 206 189 179 166 115 73 57
139 118 85 75 53 62 77 85 101 89 258 260 241 184 215 276 246 200 219 220 205 220 242 253 253 249 247 250 251 250 249 249 248 247 246 245 243 241 239 240 240 238 234 231 230 229 229 230 232 233 234 234 234 233 232 231 231 232 233 233 234 236 237 239 241 241 242 243 243 244 248 248 248 251 249 240 240 244 244 245 246 246 247 244 239 236 229 215 201 193 187 180 173 144 96 60 39
134 111 106 101 28 32 33 10 74 204 243 294 330 164 169 246 247 202 237 239 210 209 218 230 243 246 246 249 252 251 250 250 250 249 249 248 248 245 241 240 239 236 232 229 229 228 228 229 229 231 232 232 233 233 233 232 232 232 233 233 234 236 237 239 240 240 241 241 241 243 248 249 247 246 244 238 233 235 243 251 249 239 234 228 218 205 197 191 188 188 183 173 158 118 71 36 21
106 104 119 113 33 35 333 269 164 237 239 278 296 157 186 244 245 238 256 258 237 229 225 225 231 241 245 247 249 251 250 251 251 251 252 251 251 249 245 243 240 235 232 230 229 229 229 229 229 231 231 232 232 233 233 233 233 233 233 233 234 235 237 239 239 240 241 241 240 240 244 250 249 244 245 247 237 233 243 248 232 215 212 204 193 189 188 188 187 182 176 166 141 89 45 24 14
143 146 148 149 135 153 205 200 221 253 245 229 204 169 247 270 259 228 232 234 233 234 237 239 241 246 250 251 251 251 248 248 249 250 252 253 252 250 246 242 238 234 231 230 230 229 229 230 230 231 231 231 232 233 233 234 234 235 235 235 235 236 237 237 238 239 239 240 241 240 243 249 249 245 246 243 235 239 244 232 209 199 196 190 186 187 188 187 184 178 171 156 116 60 27 18 7
170 162 156 168 169 178 191 188 213 235 252 261 227 181 214 224 268 241 237 252 252 245 243 243 244 246 250 254 255 253 249 246 248 250 253 255 255 251 246 239 233 231 229 228 229 230 229 230 231 232 232 232 232 233 234 234 235 236 236 236 236 236 237 237 238 239 238 238 239 240 243 246 248 246 237 226 230 241 238 215 199 192 188 188 187 187 188 185 180 174 163 134 87 47 22 12 358
198 123 125 193 185 149 133 183 201 161 342 266 220 230 220 207 284 280 267 276 272 255 248 246 243 241 243 249 252 252 251 247 248 253 258 261 261 257 248 237 228 226 227 227 228 230 231 231 232 233 234 233 233 233 234 235 236 236 236 236 236 236 236 236 236 237 236 236 237 239 241 245 250 245 229 226 234 238 224 205 193 189 188 188 188 186 185 181 175 169 152 123 84 44 14 3 356
128 171 182 197 160 112 108 193 53 76 224 243 195 244 280 318 284 277 262 267 278 264 251 245 243 242 244 247 247 248 251 250 249 253 259 265 267 262 251 235 225 223 225 227 228 230 232 232 233 234 235 234 233 233 235 236 236 236 236 235 236 236 236 235 234 233 233 233 235 237 238 240 245 240 227 230 236 228 212 200 190 188 188 186 187 186 182 177 173 165 151 140 114 34 10 2 357
138 189 183 135 69 86 115 180 44 87 233 266 216 235 264 277 263 287 272 247 264 268 248 241 244 246 249 250 247 247 252 255 255 255 259 268 272 264 248 232 225 223 225 228 229 231 232 232 234 235 236 236 235 235 236 236 236 236 236 236 235 236 236 235 234 232 231 232 232 233 236 237 238 237 229 229 231 220 206 197 190 188 187 186 187 185 180 177 171 166 162 162 160 51 15 360 350
148 171 160 137 151 206 165 160 178 190 224 273 286 256 244 215 235 303 268 232 241 256 253 246 244 240 242 247 250 256 265 269 268 261 259 266 272 261 240 228 225 225 226 228 230 232 233 234 236 236 237 237 237 237 237 237 238 238 238 238 237 238 237 234 232 231 232 234 230 229 234 235 232 234 231 227 227 215 202 196 190 187 188 188 187 183 181 178 172 171 173 170 161 61 7 351 343
61 127 162 166 11 189 181 162 164 181 205 249 299 314 259 224 217 216 232 235 234 249 262 257 245 243 244 252 259 267 275 276 268 257 251 254 258 251 234 224 224 225 227 230 232 234 236 237 238 238 238 238 237 237 238 238 239 239 239 239 238 238 237 233 231 231 233 233 228 228 233 231 228 232 231 229 226 211 200 194 189 188 189 189 187 184 182 179 176 178 177 174 173 11 345 337 336
153 163 181 197 163 133 181 184 147 131 166 210 259 278 262 244 204 196 215 229 224 232 248 248 253 261 264 269 273 276 275 268 260 250 244 244 244 240 230 223 223 225 228 232 235 238 241 242 244 243 243 243 241 241 240 240 240 240 240 239 238 237 234 231 230 231 234 231 228 230 229 224 227 232 231 232 225 208 198 193 190 190 190 189 189 186 183 181 180 181 180 182 211 295 321 323 326
175 173 184 189 181 144 167 209 196 124 168 178 178 259 265 245 204 206 215 226 233 247 268 270 283 295 289 288 294 294 287 270 257 248 242 239 237 233 227 224 225 227 231 236 239 243 246 247 248 248 247 246 245 244 244 243 242 241 240 238 238 236 232 228 227 228 231 229 228 230 224 220 227 232 233 231 218 203 196 192 191 192 190 190 190 187 185 184 182 184 189 199 232 273 299 311 321